CW0288 Weather Reports


time (UTC)temp
C
wind
direction
speed
KPH
gust
KPH
rain 1hr
cm
rain 24hr
cm
rain mn
cm
humidity
%
barometer
mb
20260504050439 13 213 17.7 29.0 0.00 0.00 0.00 39 998.8
20260504045942 13 226 20.9 29.0 0.00 0.00 0.00 39 998.9
20260504045440 13 221 17.7 32.2 0.00 0.00 0.00 40 999.0
20260504044940 13 216 20.9 32.2 0.00 0.00 0.00 40 999.3
20260504044719 13 214 16.1 24.1 0.00 0.00 0.00 41 999.3
20260504043940 13 210 17.7 27.4 0.00 0.00 0.00 41 999.5
20260504043436 13 221 17.7 27.4 0.00 0.00 0.00 41 999.6
20260504042938 13 224 14.5 25.7 0.00 0.00 0.00 41 999.7
20260504042433 13 220 19.3 25.7 0.00 0.00 0.00 41 999.7
20260504041933 13 220 17.7 25.7 0.00 0.00 0.00 41 999.8
20260504041433 13 204 19.3 27.4 0.00 0.00 0.00 41 1000.0
20260504040932 13 224 16.1 27.4 0.00 0.00 0.00 41 1000.1
20260504040430 13 214 17.7 27.4 0.00 0.00 0.00 41 1000.3
20260504035930 13 227 17.7 27.4 0.00 0.00 0.00 41 1000.4
20260504035430 13 220 17.7 25.7 0.00 0.00 0.00 40 1000.5
20260504034931 13 228 19.3 25.7 0.00 0.00 0.00 39 1000.6
20260504034430 13 227 17.7 25.7 0.00 0.00 0.00 40 1000.8
20260504033930 13 204 17.7 25.7 0.00 0.00 0.00 39 1000.9
20260504033431 13 212 17.7 25.7 0.00 0.00 0.00 40 1001.0
20260504032930 13 210 19.3 25.7 0.00 0.00 0.00 39 1001.1
20260504032430 13 219 14.5 22.5 0.00 0.00 0.00 40 1001.2
20260504031930 13 219 14.5 22.5 0.00 0.00 0.00 40 1001.3
20260504031429 13 227 14.5 22.5 0.00 0.00 0.00 39 1001.5
20260504030929 13 212 16.1 20.9 0.00 0.00 0.00 39 1001.6
20260504030429 13 221 14.5 17.7 0.00 0.00 0.00 39 1001.7
20260504025928 13 212 12.9 20.9 0.00 0.00 0.00 39 1001.9
20260504025428 13 230 12.9 20.9 0.00 0.00 0.00 39 1002.0
20260504025208 13 210 14.5 19.3 0.00 0.00 0.00 39 1002.1
20260504024425 13 224 14.5 19.3 0.00 0.00 0.00 41 1002.2
20260504023924 13 210 14.5 19.3 0.00 0.00 0.00 41 1002.2
20260504023425 13 214 14.5 17.7 0.00 0.00 0.00 43 1002.3
20260504022920 13 221 12.9 17.7 0.00 0.00 0.00 41 1002.4
20260504022418 13 235 9.7 16.1 0.00 0.00 0.00 43 1002.5
20260504021919 13 226 9.7 16.1 0.00 0.00 0.00 40 1002.5
20260504021418 13 221 9.7 14.5 0.00 0.00 0.00 40 1002.6
20260504020915 13 231 8.0 16.1 0.00 0.00 0.00 40 1002.6
20260504020415 13 240 11.3 16.1 0.00 0.00 0.00 41 1002.7
20260504015915 13 231 9.7 14.5 0.00 0.00 0.00 38 1002.8
20260504015415 13 241 8.0 14.5 0.00 0.00 0.00 37 1002.8
20260504014915 13 240 9.7 14.5 0.00 0.00 0.00 37 1002.8
20260504014725 13 235 9.7 14.5 0.00 0.00 0.00 37 1002.8
20260504013415 14 235 9.7 11.3 0.00 0.00 0.00 36 1003.0
20260504012912 14 241 9.7 9.7 0.00 0.00 0.00 35 1003.0
20260504012412 15 245 8.0 9.7 0.00 0.00 0.00 36 1003.1
20260504011913 15 235 6.4 9.7 0.00 0.00 0.00 35 1003.1
20260504011411 15 244 6.4 11.3 0.00 0.00 0.00 35 1003.2
20260504010910 15 261 8.0 11.3 0.00 0.00 0.00 33 1003.2
20260504010411 16 255 8.0 14.5 0.00 0.00 0.00 32 1003.2
20260504005909 16 255 9.7 14.5 0.00 0.00 0.00 31 1003.4
20260504005409 16 266 8.0 16.1 0.00 0.00 0.00 32 1003.5
20260504004909 16 278 9.7 16.1 0.00 0.00 0.00 32 1003.5
20260504004410 16 285 11.3 16.1 0.00 0.00 0.00 31 1003.4
20260504003909 16 292 11.3 24.1 0.00 0.00 0.00 29 1003.4
20260504003410 17 268 14.5 29.0 0.00 0.00 0.00 30 1003.5
20260504002909 17 269 19.3 29.0 0.00 0.00 0.00 27 1003.5
20260504002409 17 268 19.3 29.0 0.00 0.00 0.00 27 1003.4
20260504002150 17 272 17.7 30.6 0.00 0.00 0.00 27 1003.5
20260504001409 17 285 22.5 30.6 0.00 0.00 0.00 26 1003.4
20260504001151 17 288 11.3 27.4 0.00 0.00 0.00 28 1003.6
20260504000409 17 289 16.1 24.1 0.00 0.00 0.00 28 1003.6
20260503235908 17 266 16.1 32.2 0.00 0.00 0.00 29 1003.7
20260503235409 18 278 14.5 32.2 0.00 0.00 0.00 27 1003.7
20260503234908 18 295 19.3 29.0 0.00 0.00 0.00 27 1003.7
20260503234409 18 279 17.7 25.7 0.00 0.00 0.00 26 1003.7
20260503233907 18 252 19.3 25.7 0.00 0.00 0.00 24 1003.8
20260503233408 18 271 17.7 24.1 0.00 0.00 0.00 23 1003.8
20260503232907 18 275 16.1 27.4 0.00 0.00 0.00 23 1003.8
20260503232406 18 282 17.7 29.0 0.00 0.00 0.00 23 1003.9
20260503231907 19 281 19.3 29.0 0.00 0.00 0.00 22 1004.0
20260503231404 18 283 16.1 25.7 0.00 0.00 0.00 27 1004.2
20260503230905 18 264 17.7 25.7 0.00 0.00 0.00 27 1004.2
20260503230643 18 305 17.7 27.4 0.00 0.00 0.00 26 1004.1
20260503225902 18 282 17.7 27.4 0.00 0.00 0.00 26 1004.1
20260503225401 18 281 17.7 25.7 0.00 0.00 0.00 23 1004.2
20260503224902 18 259 11.3 35.4 0.00 0.00 0.00 22 1004.1
20260503224402 18 298 19.3 35.4 0.00 0.00 0.00 24 1004.1
20260503223902 18 300 19.3 30.6 0.00 0.00 0.00 23 1004.1
20260503223402 18 282 22.5 33.8 0.00 0.00 0.00 24 1004.2
20260503222902 19 314 24.1 33.8 0.00 0.00 0.00 23 1004.1
20260503222402 20 274 24.1 33.8 0.00 0.00 0.00 20 1004.1
20260503222153 20 286 12.9 32.2 0.00 0.00 0.00 23 1004.1
20260503221401 20 254 22.5 32.2 0.00 0.00 0.00 20 1004.2
20260503220900 20 288 19.3 32.2 0.00 0.00 0.00 21 1004.5
20260503220655 20 321 22.5 32.2 0.00 0.00 0.00 20 1004.2
20260503220153 20 281 22.5 30.6 0.00 0.00 0.00 23 1004.3
20260503215358 20 281 14.5 29.0 0.00 0.00 0.00 22 1004.5
20260503214858 20 300 19.3 32.2 0.00 0.00 0.00 24 1004.6
20260503214359 20 307 19.3 32.2 0.00 0.00 0.00 23 1004.6
20260503213854 20 258 14.5 29.0 0.00 0.00 0.00 26 1004.7
20260503213640 20 309 17.7 35.4 0.00 0.00 0.00 24 1004.7
20260503212854 20 305 27.4 35.4 0.00 0.00 0.00 21 1004.7
20260503212352 20 285 8.0 30.6 0.00 0.00 0.00 23 1004.8
20260503211850 20 278 14.5 30.6 0.00 0.00 0.00 22 1004.8
20260503211348 20 289 24.1 30.6 0.00 0.00 0.00 27 1004.8
20260503211141 20 262 14.5 30.6 0.00 0.00 0.00 21 1004.9
20260503210348 20 319 19.3 30.6 0.00 0.00 0.00 21 1005.0
20260503205847 20 324 20.9 29.0 0.00 0.00 0.00 23 1005.1
20260503205347 20 319 20.9 37.0 0.00 0.00 0.00 19 1005.1
20260503204847 20 321 29.0 38.6 0.00 0.00 0.00 24 1005.3
20260503204632 20 331 22.5 38.6 0.00 0.00 0.00 20 1005.3
20260503204132 20 313 16.1 35.4 0.00 0.00 0.00 22 1005.4
20260503203347 20 309 20.9 35.4 0.00 0.00 0.00 23 1005.4
20260503202846 20 238 11.3 22.5 0.00 0.00 0.00 23 1005.6
20260503202347 20 319 9.7 32.2 0.00 0.00 0.00 19 1005.7
20260503201846 20 0 17.7 38.6 0.00 0.00 0.00 22 1005.7
20260503201345 19 340 27.4 38.6 0.00 0.00 0.00 20 1005.8
20260503200847 20 292 29.0 38.6 0.00 0.00 0.00 24 1005.8
20260503200346 20 305 29.0 38.6 0.00 0.00 0.00 23 1005.8
20260503195845 20 306 17.7 29.0 0.00 0.00 0.00 24 1005.8
20260503195345 20 341 12.9 27.4 0.00 0.00 0.00 24 1006.0
20260503194842 20 265 19.3 29.0 0.00 0.00 0.00 23 1006.1
20260503194342 19 298 17.7 29.0 0.00 0.00 0.00 23 1006.0
20260503193842 19 348 14.5 32.2 0.00 0.00 0.00 24 1006.1
20260503193342 19 358 22.5 32.2 0.00 0.00 0.00 24 1006.1
20260503192843 19 292 19.3 30.6 0.00 0.00 0.00 24 1006.2
20260503192629 18 292 19.3 32.2 0.00 0.00 0.00 22 1006.2
20260503192127 18 327 19.3 35.4 0.00 0.00 0.00 26 1006.4
20260503191342 19 4 25.7 35.4 0.00 0.00 0.00 22 1006.4
20260503190842 18 316 16.1 33.8 0.00 0.00 0.00 26 1006.5
20260503190340 18 345 25.7 33.8 0.00 0.00 0.00 26 1006.5
20260503185839 18 334 19.3 29.0 0.00 0.00 0.00 22 1006.6
20260503185340 18 0 8.0 29.0 0.00 0.00 0.00 21 1006.7
20260503184837 18 302 20.9 37.0 0.00 0.00 0.00 23 1006.9
20260503184337 18 329 25.7 37.0 0.00 0.00 0.00 24 1006.9
20260503183836 18 353 19.3 37.0 0.00 0.00 0.00 26 1007.0
20260503183335 18 329 24.1 37.0 0.00 0.00 0.00 22 1006.9
20260503183123 18 0 22.5 33.8 0.00 0.00 0.00 23 1007.2
20260503182335 18 299 16.1 38.6 0.00 0.00 0.00 30 1007.3
20260503181836 17 326 27.4 38.6 0.00 0.00 0.00 23 1007.4
20260503181337 17 7 20.9 45.1 0.00 0.00 0.00 23 1007.3
20260503180834 17 345 25.7 45.1 0.00 0.00 0.00 28 1007.3
20260503180334 17 347 25.7 46.7 0.00 0.00 0.00 23 1007.6
20260503180121 17 344 32.2 46.7 0.00 0.00 0.00 22 1007.6
20260503175618 17 333 32.2 43.5 0.00 0.00 0.00 23 1007.6
20260503175119 17 0 30.6 43.5 0.00 0.00 0.00 22 1007.5
20260503174332 17 341 30.6 45.1 0.00 0.00 0.00 22 1007.5
20260503173831 16 347 25.7 45.1 0.00 0.00 0.00 19 1007.5
20260503173330 17 338 32.2 43.5 0.00 0.00 0.00 21 1007.5
20260503172830 17 351 30.6 43.5 0.00 0.00 0.00 24 1007.5
20260503172330 17 340 25.7 33.8 0.00 0.00 0.00 20 1007.6
20260503172115 17 0 20.9 33.8 0.00 0.00 0.00 23 1007.6
20260503171328 17 354 24.1 37.0 0.00 0.00 0.00 21 1007.7
20260503170830 17 336 24.1 38.6 0.00 0.00 0.00 21 1007.7
20260503170347 16 353 29.0 38.6 0.00 0.00 0.00 20 1007.7
20260503150828 15 317 22.5 33.8 0.00 0.00 0.00 46 1007.3
20260503150621 15 353 20.9 41.8 0.00 0.00 0.00 47 1007.3
20260503150135 15 0 29.0 41.8 0.00 0.00 0.00 46 1007.4
20260503131305 11 7 22.5 33.8 0.00 0.00 0.00 63 1006.8
20260503130803 11 0 19.3 32.2 0.00 0.00 0.00 63 1006.7
20260503130305 10 351 16.1 29.0 0.00 0.00 0.00 64 1006.7
20260503110803 6 355 17.7 27.4 0.00 0.00 0.00 75 1005.1
20260503110303 6 345 17.7 29.0 0.00 0.00 0.00 79 1005.1
20260503090254 4 41 3.2 4.8 0.00 0.00 0.00 79 1004.9
20260503081249 6 89 3.2 4.8 0.00 0.00 0.00 74 1005.0
20260503080750 5 86 3.2 6.4 0.00 0.00 0.00 74 1005.1
20260503080544 5 85 4.8 6.4 0.00 0.00 0.00 76 1005.1
20260503072749 7 138 3.2 6.4 0.00 0.00 0.00 67 1005.0
20260503072248 7 147 3.2 8.0 0.00 0.00 0.00 67 1005.2
20260503071748 8 147 6.4 9.7 0.00 0.00 0.00 65 1005.1
20260503071534 8 154 6.4 9.7 0.00 0.00 0.00 65 1005.0
20260503070746 8 134 8.0 9.7 0.00 0.00 0.00 65 1005.2
20260503070247 8 124 6.4 9.7 0.00 0.00 0.00 62 1005.2